Covington, KY

7:01 AM EDT on August 18, 2017 (GMT -0400)
Cincinnati-Northern KY International

Weather History for KCVG - January, 2012

Change the Weather History Date:

Sunday, January 15, 2012

  Actual Average Record
Temperature  
Mean Temperature 22 °F 31 °F  
Max Temperature 32 °F 38 °F 66 °F (1932)
Min Temperature 11 °F 23 °F -11 °F (1972)
Degree Days  
Heating Degree Days 43 34  
Month to date heating degree days 465 510  
Since 1 July heating degree days 2111 2429  
Cooling Degree Days 0 0  
Month to date cooling degree days 0 0  
Year to date cooling degree days 0 0  
Moisture  
Dew Point 16 °F    
Average Humidity 73    
Maximum Humidity 92    
Minimum Humidity 53    
Precipitation  
Precipitation T in 0.10 in 1.46 in (1885)
Month to date precipitation 0.91 1.48  
Year to date precipitation 0.91 1.48  
Snow  
Snow T in 0.20 in 3.00 in (1918)
Month to date snowfall 1.6 2.9  
Since 1 July snowfall 2.0 8.5  
Snow Depth T in    
Sea Level Pressure  
Sea Level Pressure 30.39 in    
Wind  
Wind Speed 6 mph (South)    
Max Wind Speed 14 mph    
Max Gust Speed 21 mph    
Visibility 9 miles    
Events Snow    
T = Trace of Precipitation, MM = Missing Value Source: NWS Daily Summary

Daily Weather History Graph

Daily Weather History Graph

Search for Another Location

Airport or City:

Trip Planner

Search our weather history database for the weather conditions in past years. The results will help you decide how hot, cold, wet, or windy it might be!

Date:

Astronomy

Jan. 15, 2012 Rise Set
Actual Time 7:56 AM EST 5:39 PM EST
Civil Twilight 7:26 AM EST 6:09 PM EST
Nautical Twilight 6:54 AM EST 6:42 PM EST
Astronomical Twilight 6:22 AM EST 7:14 PM EST
Moon No Moon Rise 11:17 AM EST (1/15)
Length of Visible Light 10h 42m
Length of Day
9h 43m
Waning Gibbous, 58% of the Moon is Illuminated
Jan 15
Waning Gibbous
Jan 16
Last Quarter
Jan 23
New
Jan 30
First Quarter
Feb 7
Full

Hourly Weather History & Observations

Time (EST) Temp. Windchill Dew Point Humidity Pressure Visibility Wind Dir Wind Speed Gust Speed Precip Events Conditions
12:50 AM 23.0 °F 13.1 °F 17.6 °F 80% 30.23 in 8.0 mi NW 9.2 mph - 0.00 in Snow Light Snow
12:52 AM 23.0 °F 13.9 °F 18.0 °F 81% 30.26 in 8.0 mi NW 8.1 mph - 0.00 in Snow Light Snow
1:52 AM 19.9 °F 11.1 °F 14.0 °F 78% 30.28 in 10.0 mi NNW 6.9 mph - 0.00 in   Partly Cloudy
2:52 AM 18.0 °F 8.7 °F 12.9 °F 81% 30.31 in 9.0 mi North 6.9 mph - N/A   Clear
3:52 AM 17.1 °F 8.7 °F 12.9 °F 84% 30.34 in 8.0 mi NW 5.8 mph - N/A   Clear
4:52 AM 15.1 °F 9.4 °F 12.0 °F 88% 30.37 in 10.0 mi West 3.5 mph - N/A   Clear
5:52 AM 15.1 °F 6.4 °F 12.0 °F 88% 30.39 in 7.0 mi WNW 5.8 mph - N/A   Clear
6:52 AM 12.9 °F - 10.0 °F 88% 30.42 in 8.0 mi Calm Calm - N/A   Clear
7:52 AM 12.0 °F - 9.0 °F 88% 30.45 in 5.0 mi Calm Calm - N/A   Clear
8:52 AM 16.0 °F - 12.0 °F 84% 30.47 in 5.0 mi Calm Calm - N/A   Clear
9:52 AM 19.9 °F - 15.1 °F 81% 30.49 in 7.0 mi Calm Calm - N/A   Clear
10:52 AM 21.9 °F 17.2 °F 14.0 °F 72% 30.51 in 9.0 mi SSE 3.5 mph - N/A   Clear
11:52 AM 24.1 °F 18.2 °F 14.0 °F 65% 30.48 in 10.0 mi ESE 4.6 mph - N/A   Clear
12:52 PM 27.0 °F 20.5 °F 12.0 °F 53% 30.45 in 10.0 mi SSW 5.8 mph - N/A   Clear
1:52 PM 28.9 °F 21.9 °F 14.0 °F 54% 30.43 in 10.0 mi South 6.9 mph - N/A   Clear
2:52 PM 30.9 °F 23.5 °F 16.0 °F 54% 30.44 in 10.0 mi South 8.1 mph - N/A   Clear
3:52 PM 32.0 °F 24.2 °F 17.1 °F 54% 30.43 in 10.0 mi South 9.2 mph - N/A   Clear
4:52 PM 32.0 °F 24.8 °F 18.0 °F 56% 30.42 in 10.0 mi South 8.1 mph - N/A   Clear
5:52 PM 28.4 °F 20.4 °F 17.6 °F 64% 30.40 in 10.0 mi South 8.1 mph - N/A   Clear
6:52 PM 28.0 °F 18.6 °F 19.0 °F 69% 30.42 in 10.0 mi SE 10.4 mph - N/A   Clear
7:52 PM 27.0 °F 18.0 °F 19.9 °F 75% 30.41 in 10.0 mi SSE 9.2 mph 20.7 mph N/A   Clear
8:52 PM 26.1 °F 16.2 °F 19.9 °F 78% 30.39 in 10.0 mi SSE 10.4 mph - N/A   Clear
9:52 PM 27.0 °F 17.3 °F 19.9 °F 75% 30.37 in 10.0 mi SSE 10.4 mph - N/A   Clear
10:52 PM 27.0 °F 18.0 °F 19.9 °F 75% 30.34 in 10.0 mi SE 9.2 mph - N/A   Clear
11:52 PM 26.1 °F 17.6 °F 21.0 °F 81% 30.31 in 10.0 mi SSE 8.1 mph - N/A   Partly Cloudy